When you browse on this site, cookies collect data to enhance your experience and personalize the content and advertising you see.
Visit our Privacy Policy to learn more. By continuing to use the site, you agree to this use of cookies and data.
  • En España
  • Lista de países
  • Para 7 días
  • Temperatura del agua
  • Mapa Satelital
  • El tiempo en el mapa
  • Informadores
  • user-avatar
    Iniciar sesión

    Tiempo cada hora Malanje

    Hoy, 20 Enero, Domingo

    Tiempo Temperatura Precipitaciones Viento Presión Humedad
    00:00 +20°C° 0 mm 1 mps 666 mmHg 97%
    01:00 +20°C° 0 mm 1 mps 666 mmHg 98%
    02:00 +20°C° 0 mm 1 mps 665 mmHg 98%
    03:00 +19°C° 0 mm 1 mps 665 mmHg 99%
    04:00 +19°C° 0 mm 1 mps 665 mmHg 99%
    05:00 +20°C° 0 mm 1 mps 666 mmHg 98%
    06:00 +20°C° 0 mm 1 mps 666 mmHg 97%
    07:00 +20°C° 0 mm 1 mps 666 mmHg 96%
    08:00 +21°C° 0.1 mm 1 mps 667 mmHg 91%
    09:00 +23°C° 0.1 mm 2 mps 667 mmHg 86%
    10:00 +24°C° 0.1 mm 2 mps 667 mmHg 82%
    11:00 +25°C° 0.4 mm 2 mps 667 mmHg 79%
    12:00 +26°C° 0.4 mm 2 mps 667 mmHg 76%
    13:00 +27°C° 0.4 mm 2 mps 667 mmHg 73%
    14:00 +26°C° 0.6 mm 2 mps 666 mmHg 75%
    15:00 +26°C° 0.6 mm 2 mps 665 mmHg 78%
    16:00 +25°C° 0.6 mm 3 mps 665 mmHg 81%
    17:00 +24°C° 0.2 mm 2 mps 665 mmHg 85%
    18:00 +23°C° 0.2 mm 2 mps 665 mmHg 90%
    19:00 +21°C° 0.2 mm 1 mps 665 mmHg 95%
    20:00 +21°C° 0.1 mm 1 mps 665 mmHg 96%
    21:00 +20°C° 0.1 mm 1 mps 666 mmHg 96%
    22:00 +20°C° 0.1 mm 1 mps 666 mmHg 97%
    23:00 +20°C° 0.9 mm 1 mps 666 mmHg 97%

    Mañana, 21 Enero, Lunes

    Tiempo Temperatura Precipitaciones Viento Presión Humedad
    00:00 +20°C° 0.9 mm 1 mps 666 mmHg 98%
    01:00 +19°C° 0.9 mm 2 mps 666 mmHg 99%
    02:00 +19°C° 0 mm 2 mps 666 mmHg 98%
    03:00 +19°C° 0 mm 2 mps 666 mmHg 98%
    04:00 +19°C° 0 mm 3 mps 666 mmHg 98%
    05:00 +19°C° 0 mm 2 mps 666 mmHg 98%
    06:00 +19°C° 0 mm 2 mps 666 mmHg 97%
    07:00 +19°C° 0 mm 2 mps 667 mmHg 97%
    08:00 +20°C° 0 mm 2 mps 667 mmHg 93%
    09:00 +21°C° 0 mm 2 mps 667 mmHg 90%
    10:00 +21°C° 0 mm 2 mps 667 mmHg 86%
    11:00 +24°C° 0 mm 2 mps 667 mmHg 81%
    12:00 +25°C° 0 mm 2 mps 667 mmHg 75%
    13:00 +26°C° 0 mm 3 mps 666 mmHg 69%
    14:00 +26°C° 0 mm 3 mps 666 mmHg 70%
    15:00 +26°C° 0 mm 3 mps 665 mmHg 72%
    16:00 +25°C° 0 mm 3 mps 665 mmHg 73%
    17:00 +24°C° 0 mm 2 mps 665 mmHg 78%
    18:00 +23°C° 0 mm 2 mps 665 mmHg 83%
    19:00 +21°C° 0 mm 2 mps 665 mmHg 88%
    20:00 +20°C° 0 mm 2 mps 665 mmHg 89%
    21:00 +21°C° 0 mm 1 mps 666 mmHg 91%
    22:00 +20°C° 0 mm 1 mps 666 mmHg 93%
    23:00 +20°C° 0 mm 1 mps 666 mmHg 94%

    Pasado mañana, 22 Enero, Martes

    Tiempo Temperatura Precipitaciones Viento Presión Humedad
    00:00 +20°C° 0 mm 1 mps 666 mmHg 96%
    01:00 +19°C° 0 mm 1 mps 665 mmHg 97%
    02:00 +19°C° 0 mm 1 mps 665 mmHg 98%
    03:00 +19°C° 0 mm 1 mps 665 mmHg 98%
    04:00 +18°C° 0 mm 1 mps 665 mmHg 99%
    05:00 +19°C° 0 mm 1 mps 665 mmHg 98%
    06:00 +19°C° 0 mm 1 mps 665 mmHg 96%
    07:00 +20°C° 0 mm 1 mps 666 mmHg 95%
    08:00 +21°C° 0 mm 2 mps 666 mmHg 85%
    09:00 +24°C° 0 mm 2 mps 667 mmHg 74%
    10:00 +26°C° 0 mm 3 mps 667 mmHg 64%
    11:00 +27°C° 0 mm 3 mps 667 mmHg 61%
    12:00 +28°C° 0 mm 3 mps 666 mmHg 57%
    13:00 +29°C° 0 mm 4 mps 666 mmHg 53%
    14:00 +29°C° 0 mm 4 mps 665 mmHg 55%
    15:00 +28°C° 0 mm 3 mps 664 mmHg 57%
    16:00 +28°C° 0 mm 3 mps 664 mmHg 59%
    17:00 +26°C° 0 mm 3 mps 664 mmHg 66%
    18:00 +24°C° 0 mm 2 mps 664 mmHg 72%
    19:00 +21°C° 0 mm 2 mps 664 mmHg 79%
    20:00 +21°C° 0 mm 2 mps 665 mmHg 79%
    21:00 +20°C° 0 mm 2 mps 665 mmHg 79%
    22:00 +20°C° 0 mm 2 mps 666 mmHg 79%
    23:00 +19°C° 0 mm 2 mps 665 mmHg 80%

    23 Enero, Miércoles

    Tiempo Temperatura Precipitaciones Viento Presión Humedad
    00:00 +19°C° 0 mm 2 mps 665 mmHg 82%
    01:00 +18°C° 0 mm 2 mps 665 mmHg 83%
    02:00 +18°C° 0 mm 2 mps 665 mmHg 84%
    03:00 +18°C° 0 mm 2 mps 664 mmHg 86%
    04:00 +17°C° 0 mm 2 mps 664 mmHg 87%
    05:00 +17°C° 0 mm 2 mps 665 mmHg 88%
    06:00 +17°C° 0 mm 2 mps 665 mmHg 88%
    07:00 +17°C° 0 mm 2 mps 665 mmHg 88%
    08:00 +18°C° 0 mm 2 mps 666 mmHg 85%
    09:00 +19°C° 0 mm 2 mps 666 mmHg 81%
    10:00 +20°C° 0 mm 2 mps 667 mmHg 78%
    11:00 +21°C° 0 mm 2 mps 666 mmHg 75%
    12:00 +23°C° 0 mm 2 mps 666 mmHg 73%
    13:00 +24°C° 0 mm 3 mps 665 mmHg 71%
    14:00 +25°C° 0 mm 3 mps 665 mmHg 72%
    15:00 +25°C° 0 mm 3 mps 664 mmHg 73%
    16:00 +25°C° 0 mm 3 mps 664 mmHg 74%
    17:00 +24°C° 0 mm 2 mps 664 mmHg 80%
    18:00 +21°C° 0 mm 2 mps 664 mmHg 86%
    19:00 +21°C° 0 mm 1 mps 664 mmHg 92%
    20:00 +20°C° 0 mm 1 mps 664 mmHg 93%
    21:00 +20°C° 0 mm 1 mps 665 mmHg 94%
    22:00 +19°C° 0 mm 1 mps 665 mmHg 95%
    23:00 +19°C° 0 mm 1 mps 665 mmHg 95%

    24 Enero, Jueves

    Tiempo Temperatura Precipitaciones Viento Presión Humedad
    00:00 +19°C° 0 mm 1 mps 664 mmHg 95%
    01:00 +18°C° 0 mm 1 mps 664 mmHg 95%
    02:00 +18°C° 0 mm 1 mps 664 mmHg 95%
    03:00 +18°C° 0 mm 1 mps 663 mmHg 96%
    04:00 +18°C° 0 mm 1 mps 663 mmHg 96%
    05:00 +18°C° 0 mm 1 mps 664 mmHg 94%
    06:00 +19°C° 0 mm 1 mps 664 mmHg 92%
    07:00 +19°C° 0 mm 1 mps 665 mmHg 91%
    08:00 +21°C° 0 mm 1 mps 665 mmHg 83%
    09:00 +23°C° 0 mm 1 mps 666 mmHg 76%
    10:00 +25°C° 0 mm 1 mps 666 mmHg 68%
    11:00 +26°C° 0 mm 1 mps 666 mmHg 65%
    12:00 +28°C° 0 mm 1 mps 665 mmHg 62%
    13:00 +29°C° 0 mm 1 mps 665 mmHg 59%
    14:00 +28°C° 0.6 mm 1 mps 664 mmHg 64%
    15:00 +28°C° 0.6 mm 1 mps 663 mmHg 69%
    16:00 +27°C° 0.6 mm 1 mps 663 mmHg 74%
    17:00 +26°C° 1.7 mm 1 mps 663 mmHg 80%
    18:00 +24°C° 1.7 mm 1 mps 663 mmHg 86%
    19:00 +22°C° 1.7 mm 1 mps 663 mmHg 91%
    20:00 +21°C° 0.3 mm 1 mps 664 mmHg 91%
    21:00 +21°C° 0.3 mm 1 mps 664 mmHg 91%
    22:00 +19°C° 0.3 mm 0 mps 665 mmHg 90%
    23:00 +21°C° 0 mm 1 mps 664 mmHg 92%

    25 Enero, Viernes

    Tiempo Temperatura Precipitaciones Viento Presión Humedad
    00:00 +20°C° 0 mm 1 mps 664 mmHg 94%
    01:00 +19°C° 0 mm 2 mps 664 mmHg 95%
    02:00 +20°C° 0 mm 1 mps 664 mmHg 96%
    03:00 +19°C° 0 mm 1 mps 664 mmHg 96%
    04:00 +19°C° 0 mm 1 mps 663 mmHg 97%
    05:00 +20°C° 0 mm 1 mps 664 mmHg 96%
    06:00 +20°C° 0 mm 1 mps 665 mmHg 95%
    07:00 +18°C° 0 mm 0 mps 665 mmHg 94%
    08:00 +23°C° 0 mm 1 mps 666 mmHg 85%
    09:00 +26°C° 0 mm 1 mps 666 mmHg 76%
    10:00 +28°C° 0 mm 1 mps 667 mmHg 66%
    11:00 +29°C° 0 mm 1 mps 666 mmHg 60%
    12:00 +30°C° 0 mm 1 mps 666 mmHg 54%
    13:00 +31°C° 0 mm 2 mps 666 mmHg 48%
    14:00 +30°C° 0 mm 2 mps 665 mmHg 51%
    15:00 +30°C° 0 mm 2 mps 665 mmHg 53%
    16:00 +30°C° 0 mm 2 mps 664 mmHg 55%
    17:00 +28°C° 0 mm 2 mps 664 mmHg 61%
    18:00 +26°C° 0 mm 1 mps 664 mmHg 67%
    19:00 +24°C° 0 mm 1 mps 664 mmHg 73%
    20:00 +23°C° 0 mm 1 mps 664 mmHg 75%
    21:00 +22°C° 0 mm 1 mps 665 mmHg 77%
    22:00 +21°C° 0 mm 1 mps 665 mmHg 79%
    23:00 +21°C° 0 mm 1 mps 665 mmHg 80%
    Mostrar más